Cosmos 1818 - Orbit

View from above orbital plane
View from above orbital plane
View from above satellite
View from above satellite

Ground track
Ground track

The orbit data is extracted from the following two-line orbital elements,

1 17369U 87011A   13145.82116964 -.00000027  00000-0  27644-4 0  9306
2 17369 065.0123 286.3319 0022030 274.7280 232.4065 14.31261692426328
Epoch (UTC): 25 May 2013 19:42:29
Eccentricity: 0.0022030
inclination: 65.0123°
perigee height: 772 km
apogee height: 803 km
right ascension of ascending node: 286.3319°
argument of perigee: 274.7280°
revolutions per day: 14.31261692
mean anomaly at epoch: 232.4065°
orbit number at epoch: 42632

The dashed part of the orbit path shows where the satellite is in the earth's shadow,  

Developed and maintained by Chris Peat, Heavens-Above GmbH. Please read the updated FAQ before sending e-mail. Imprint. DLR